"2010-04-18 00:00:00",35020,1.858,353,10.78,0.95,7.327,103.4032,7.988,9.17,76.83,0,110.4,13.35,8.77,315.0
"2010-04-18 00:00:30",35021,2.269,350.1,4.255,0.469,5.924,103.4159,8.02,9.01,76.46,0,110.4,13.39,8.80,312.1
"2010-04-18 00:01:00",35022,3.589,348.3,7.148,1.012,8.23,103.4168,8.02,9.18,76.3,0,110.4,13.35,8.80,310.3
"2010-04-18 00:01:30",35023,4.304,350.5,9.71,1.277,9.84,103.4168,8.02,9.25,76.02,0,110.4,13.35,8.80,312.5
"2010-04-18 00:02:00",35024,3.907,356.6,10.29,1.267,9.65,103.4168,8.02,9.22,75.59,0,110.4,13.35,8.80,318.6
"2010-04-18 00:02:30",35025,2.722,343.7,11.15,1.105,7.773,103.4168,8.02,9.2,75.26,0,110.4,13.35,8.80,305.7
"2010-04-18 00:03:00",35026,1.512,5.203,8.87,0.729,5.551,103.4168,8.02,9.05,74.94,0,110.4,13.35,8.80,327.2
"2010-04-18 00:03:30",35027,1.548,12.85,7.996,0.247,5.614,103.4171,8.02,9.08,74.89,0,110.4,13.39,8.80,334.9
"2010-04-18 00:04:00",35028,1.815,348.2,8.07,0.185,6.11,103.4171,8.02,9.22,75.05,0,110.4,13.39,8.80,310.2
"2010-04-18 00:04:30",35029,3.152,346.5,11.5,1.216,8.32,103.4168,8.02,9.15,74.91,0,110.4,13.35,8.80,308.5
"2010-04-18 00:05:00",35030,2.391,332.8,7.287,0.989,7.853,103.4179,8.03,9.23,75.07,0,110.4,13.35,8.81,294.8
"2010-04-18 00:05:30",35031,1.971,341.7,13.28,1.32,8.08,103.4168,8.02,9.2,75.15,0,110.4,13.35,8.80,303.7
"2010-04-18 00:06:00",35032,1.942,22.6,14.41,1.231,8.74,103.4182,8.03,9.24,75.35,0,110.5,13.35,8.81,344.6
"2010-04-18 00:06:30",35033,1.714,35.09,9.32,1.176,6.776,103.4193,8.03,9.22,75.52,0,110.4,13.35,8.81,357.1
"2010-04-18 00:07:00",35034,1.837,20.16,14.56,1.347,6.9,103.4233,8.04,9.28,75.76,0,110.4,13.35,8.82,342.2
"2010-04-18 00:07:30",35035,0.764,22.83,12.72,0.193,4.81,103.427,8.05,9.12,75.65,0,110.4,13.39,8.83,344.8
"2010-04-18 00:08:00",35036,0.5,26.29,8.96,0.212,4.899,103.4273,8.05,9.12,75.74,0,110.4,13.39,8.83,348.3
"2010-04-18 00:08:30",35037,0.486,31.32,9.79,0.111,5.031,103.4365,8.07,9.13,75.85,0,110.4,13.39,8.85,353.3
"2010-04-18 00:09:00",35038,0.408,26.65,10.61,0.105,5.394,103.4453,8.1,9.14,76.03,0,110.4,13.39,8.88,348.6
"2010-04-18 00:09:30",35039,1.168,32.55,4.867,0.277,5.486,103.4503,8.11,9.15,76.3,0,110.4,13.39,8.89,354.5
"2010-04-18 00:10:00",35040,0.863,17.47,11.09,0.219,6.325,103.4512,8.11,9.16,76.5,0,110.4,13.39,8.89,339.5
"2010-04-18 00:10:30",35041,0.684,19.75,16.58,0.286,6.715,103.4509,8.11,9.16,76.22,0,110.4,13.39,8.89,341.8
"2010-04-18 00:11:00",35042,2.403,352.7,9.81,1.368,8.69,103.4506,8.11,9.26,75.86,0,110.4,13.35,8.89,314.7
"2010-04-18 00:11:30",35043,2.588,343.8,12.43,1.267,9.99,103.4506,8.11,9.45,76.58,0,110.4,13.35,8.89,305.8
"2010-04-18 00:12:00",35044,2.842,0.702,16.17,1.193,10.66,103.4605,8.13,9.49,76.84,0,110.4,13.35,8.92,322.7
"2010-04-18 00:12:30",35045,1.647,30.93,17.59,1.375,8.75,103.4791,8.18,9.38,76.57,0,110.4,13.34,8.96,352.9
"2010-04-18 00:13:00",35046,0.258,28.79,21.42,0.258,5.033,103.4743,8.17,9.22,75.78,0,110.4,13.37,8.95,350.8
"2010-04-18 00:13:30",35047,0.325,11.32,33.74,0.257,4.619,103.4514,8.11,9.22,75.34,0,110.4,13.37,8.89,333.3
"2010-04-18 00:14:00",35048,0.21,72.64,25.63,0.202,4.601,103.4548,8.12,9.21,75.43,0,110.4,13.38,8.90,34.6
"2010-04-18 00:14:30",35049,0.951,58.23,16.71,0.346,4.844,103.441,8.08,9.2,75.93,0,110.4,13.38,8.87,20.2
"2010-04-18 00:15:00",35050,0.763,25.43,9.63,0.353,5.421,103.403,7.987,9.15,76.22,0,110.4,13.38,8.77,347.4
"2010-04-18 00:15:30",35051,0.773,340.3,21.52,0.27,5.928,103.3829,7.936,9.1,76.21,0,110.4,13.38,8.72,302.3
"2010-04-18 00:16:00",35052,1.523,322.3,5.279,0.113,6.087,103.3821,7.934,9.06,76.48,0,110.4,13.38,8.71,284.3
"2010-04-18 00:16:30",35053,2.35,322.6,11.6,1.29,8.19,103.3829,7.936,9.03,77.1,0,110.4,13.35,8.72,284.6
"2010-04-18 00:17:00",35054,2.514,327.6,7.603,1.347,10.15,103.3829,7.936,9.31,77.71,0,110.4,13.35,8.72,289.6
"2010-04-18 00:17:30",35055,4.132,337.9,11.78,0.965,11.8,103.3829,7.936,9.36,77.59,0,110.4,13.35,8.72,299.9
"2010-04-18 00:18:00",35056,3.833,326.3,11.08,1.306,10.04,103.3821,7.934,9.23,77.39,0,110.4,13.35,8.71,288.3
"2010-04-18 00:18:30",35057,2.475,340.6,9.11,0.35,6.348,103.3508,7.854,8.94,76.99,0,110.4,13.38,8.63,302.6
"2010-04-18 00:19:00",35058,1.189,350.1,18.46,0.709,6.371,103.3161,7.766,8.89,77.43,0,110.4,13.38,8.54,312.1
"2010-04-18 00:19:30",35059,1.388,335.7,18.81,0.721,6.616,103.2693,7.646,8.81,77.64,0,110.4,13.38,8.42,297.7
"2010-04-18 00:20:00",35060,1.825,342.8,8.18,0.608,6.836,103.24,7.571,8.72,77.59,0,110.4,13.34,8.35,304.8
"2010-04-18 00:20:30",35061,2.537,358.7,13.39,1.356,9.57,103.2338,7.555,8.79,77.83,0,110.4,13.35,8.33,320.7
"2010-04-18 00:21:00",35062,1.324,358,10.83,0.958,8.14,103.2411,7.574,8.8,78.1,0,110.4,13.34,8.35,320.0
"2010-04-18 00:21:30",35063,4.171,353.7,8.51,1.064,10.66,103.2476,7.59,8.91,78.45,0,110.4,13.34,8.37,315.7
"2010-04-18 00:22:00",35064,3.923,351.4,8.83,1.151,10.37,103.2476,7.59,8.81,78.57,0,110.4,13.34,8.37,313.4
"2010-04-18 00:22:30",35065,2.099,329.3,9.64,1.253,6.675,103.2482,7.592,8.68,78.58,0,110.4,13.34,8.37,291.3
"2010-04-18 00:23:00",35066,1.251,338.3,4.826,0.149,5.84,103.2572,7.615,8.66,78.57,0,110.4,13.37,8.39,300.3
"2010-04-18 00:23:30",35067,0.785,338.3,7.083,0.127,5.873,103.2738,7.657,8.65,78.52,0,110.4,13.37,8.44,300.3
"2010-04-18 00:24:00",35068,0.706,350.6,8.8,0.138,6.655,103.2812,7.676,8.75,78.55,0,110.4,13.38,8.46,312.6
"2010-04-18 00:24:30",35069,2.176,19.37,10.63,0.942,7.915,103.2815,7.677,8.73,78.46,0,110.4,13.34,8.46,341.4
"2010-04-18 00:25:00",35070,2.061,16.1,10.92,1.334,8.55,103.2815,7.677,8.81,78.43,0,110.4,13.35,8.46,338.1
"2010-04-18 00:25:30",35071,1.245,359.9,11.34,0.801,6.76,103.2815,7.677,8.71,78.25,0,110.4,13.35,8.46,321.9
"2010-04-18 00:26:00",35072,3.706,11.38,11.75,1.328,9.74,103.2815,7.677,8.93,78.3,0,110.4,13.34,8.46,333.4
"2010-04-18 00:26:30",35073,3.058,15.62,12.22,1.246,8.99,103.2815,7.677,8.9,77.89,0,110.4,13.34,8.46,337.6
"2010-04-18 00:27:00",35074,3.504,339.1,8.38,1.36,7.619,103.2815,7.677,8.74,77.38,0,110.4,13.34,8.46,301.1
"2010-04-18 00:27:30",35075,3.452,332.9,7.784,1.215,8.65,103.2815,7.677,8.91,77.38,0,110.4,13.34,8.46,294.9
"2010-04-18 00:28:00",35076,2.987,322.3,7.233,1.293,8.18,103.2815,7.677,8.89,77.18,0,110.4,13.34,8.46,284.3
"2010-04-18 00:28:30",35077,1.965,322.9,13.04,0.975,7.347,103.2815,7.677,8.87,76.93,0,110.4,13.34,8.46,284.9
"2010-04-18 00:29:00",35078,1.381,330.3,2.623,0.184,6.062,103.2815,7.677,8.73,76.52,0,110.4,13.37,8.46,292.3
"2010-04-18 00:29:30",35079,2.045,327.2,6.355,0.926,7.469,103.2815,7.677,8.85,76.54,0,110.4,13.34,8.46,289.2
"2010-04-18 00:30:00",35080,3.155,329.6,8.89,1.247,10.21,103.2815,7.677,8.99,76.58,0,110.3,13.34,8.46,291.6
"2010-04-18 00:30:30",35081,1.879,332.2,12.53,1.419,8.32,103.2769,7.665,8.83,76.31,0,110.3,13.34,8.44,294.2
"2010-04-18 00:31:00",35082,0.627,337.2,12.34,0.163,6.578,103.2603,7.623,8.72,76.24,0,110.3,13.38,8.40,299.2
"2010-04-18 00:31:30",35083,1.999,326.8,6.305,1.251,8.2,103.2505,7.598,8.8,76.39,0,110.3,13.35,8.38,288.8
"2010-04-18 00:32:00",35084,1.467,321,7.317,1.184,7.436,103.2482,7.592,8.89,76.57,0,110.3,13.35,8.37,283.0
"2010-04-18 00:32:30",35085,1.463,316.7,6.561,1.016,7.113,103.2482,7.592,8.86,76.6,0,110.3,13.35,8.37,278.7
"2010-04-18 00:33:00",35086,1.696,320.8,6.527,0.987,7.087,103.2503,7.597,8.73,76.52,0,110.3,13.35,8.38,282.8
"2010-04-18 00:33:30",35087,1.34,317.4,5.805,0.115,5.828,103.2505,7.598,8.7,76.48,0,110.3,13.38,8.38,279.4
"2010-04-18 00:34:00",35088,1.314,317.1,6.216,0.293,5.948,103.2523,7.602,8.69,76.59,0,110.3,13.38,8.38,279.1
"2010-04-18 00:34:30",35089,2.479,332.1,8.15,1.322,9.1,103.2552,7.61,8.91,76.78,0,110.3,13.35,8.39,294.1
"2010-04-18 00:35:00",35090,2.215,329.9,7.499,1.307,9.73,103.2555,7.611,8.95,76.69,0,110.3,13.35,8.39,291.9
"2010-04-18 00:35:30",35091,1.586,321.3,5.104,0.779,6.843,103.25,7.597,8.74,76.36,0,110.3,13.35,8.38,283.3
"2010-04-18 00:36:00",35092,2.282,323.5,10.66,1.228,7.414,103.2407,7.573,8.83,76.43,0,110.3,13.35,8.35,285.5
"2010-04-18 00:36:30",35093,3.57,334.9,7.079,1.365,8.69,103.226,7.535,8.77,76.33,0,110.3,13.35,8.31,296.9
"2010-04-18 00:37:00",35094,3.777,327,8.51,1.279,9.41,103.2304,7.546,8.89,76.44,0,110.3,13.35,8.32,289.0
"2010-04-18 00:37:30",35095,2.249,324.6,3.517,0.912,6.632,103.2333,7.554,8.64,76.26,0,110.3,13.35,8.33,286.6
"2010-04-18 00:38:00",35096,1.643,327.5,3.534,0.269,5.932,103.238,7.566,8.64,76.32,0,110.3,13.39,8.34,289.5
"2010-04-18 00:38:30",35097,1.484,334.8,7.084,0.621,6.502,103.2394,7.569,8.72,76.46,0,110.3,13.36,8.35,296.8
"2010-04-18 00:39:00",35098,3.539,353,8.6,1.186,9.79,103.2386,7.567,8.84,76.67,0,110.3,13.36,8.35,315.0
"2010-04-18 00:39:30",35099,2.716,347.3,11.36,1.241,8.37,103.2392,7.569,8.71,76.67,0,110.3,13.36,8.35,309.3
"2010-04-18 00:40:00",35100,1.458,330.5,5.76,0.085,5.936,103.2416,7.575,8.63,76.65,0,110.3,13.39,8.35,292.5
"2010-04-18 00:40:30",35101,1.72,342.8,8.37,0.167,6.048,103.247,7.589,8.62,76.61,0,110.3,13.39,8.37,304.8
"2010-04-18 00:41:00",35102,2.442,347.1,4.851,1.13,7.586,103.2459,7.586,8.74,76.69,0,110.3,13.36,8.36,309.1
"2010-04-18 00:41:30",35103,3.446,349.7,8.81,1.331,9.14,103.2467,7.588,8.87,76.78,0,110.3,13.36,8.37,311.7
"2010-04-18 00:42:00",35104,2.802,345.2,10.71,1.347,8.51,103.2484,7.593,8.73,76.64,0,110.3,13.36,8.37,307.2
"2010-04-18 00:42:30",35105,1.079,340.3,13.26,0.236,6.048,103.2484,7.593,8.62,76.41,0,110.3,13.39,8.37,302.3
"2010-04-18 00:43:00",35106,1.934,329.9,11.75,1.227,8.03,103.2487,7.593,8.73,76.5,0,110.3,13.35,8.37,291.9
"2010-04-18 00:43:30",35107,1.602,330.5,10.16,1.239,7.724,103.2487,7.593,8.79,76.6,0,110.3,13.35,8.37,292.5
"2010-04-18 00:44:00",35108,1.917,333.3,7.301,1.357,8.35,103.2487,7.593,8.82,76.68,0,110.3,13.35,8.37,295.3
"2010-04-18 00:44:30",35109,1.19,341.6,8.57,0.64,6.406,103.2541,7.607,8.65,76.47,0,110.3,13.35,8.39,303.6
"2010-04-18 00:45:00",35110,1.158,324.1,5.961,0.074,5.827,103.2493,7.595,8.67,76.2,0,110.3,13.39,8.37,286.1
"2010-04-18 00:45:30",35111,1.303,317.5,7.619,1.004,6.929,103.2487,7.593,8.67,75.99,0,110.3,13.35,8.37,279.5
"2010-04-18 00:46:00",35112,1.755,317.5,9.33,0.963,7.13,103.2487,7.593,8.75,75.91,0,110.3,13.35,8.37,279.5
"2010-04-18 00:46:30",35113,2.685,310.9,12.63,1.316,8.52,103.2346,7.557,8.68,75.73,0,110.3,13.35,8.34,272.9
"2010-04-18 00:47:00",35114,2.302,300.9,10.3,1.395,8.38,103.2149,7.507,8.61,75.72,0,110.3,13.35,8.29,262.9
"2010-04-18 00:47:30",35115,2.167,346.3,15.42,1.39,8.93,103.2149,7.507,8.75,76.03,0,110.3,13.35,8.29,308.3
"2010-04-18 00:48:00",35116,1.042,345.2,15.74,1.07,7.232,103.2045,7.48,8.66,75.97,0,110.3,13.35,8.26,307.2
"2010-04-18 00:48:30",35117,2.983,352,10.36,1.154,9.37,103.1805,7.419,8.7,76.17,0,110.3,13.35,8.20,314.0
"2010-04-18 00:49:00",35118,1.837,356.1,14.87,1.437,8.02,103.1554,7.355,8.5,76.09,0,110.3,13.36,8.13,318.1
"2010-04-18 00:49:30",35119,0.351,7.717,20.52,0.26,6.571,103.1472,7.334,8.53,76.4,0,110.3,13.39,8.11,329.7
"2010-04-18 00:50:00",35120,0.349,11.59,14.87,0.214,6.251,103.1472,7.334,8.41,76.6,0,110.3,13.39,8.11,333.6
"2010-04-18 00:50:30",35121,0.466,26.65,6.707,0.2,5.814,103.1469,7.333,8.4,76.83,0,110.3,13.39,8.11,348.6
"2010-04-18 00:51:00",35122,1.735,48.26,13.72,1.366,8.05,103.1472,7.334,8.49,77.11,0,110.3,13.36,8.11,10.3
"2010-04-18 00:51:30",35123,1.171,19.4,16.49,1.142,8.07,103.1526,7.347,8.53,77.36,0,110.3,13.36,8.13,341.4
"2010-04-18 00:52:00",35124,0.647,20.08,10.73,0.996,7.078,103.1748,7.404,8.39,77.35,0,110.3,13.36,8.18,342.1
"2010-04-18 00:52:30",35125,0.216,5.122,10.78,0.128,6.193,103.1802,7.418,8.39,77.46,0,110.3,13.39,8.20,327.1
"2010-04-18 00:53:00",35126,0.413,318.1,14.6,0.123,5.981,103.1796,7.417,8.41,77.72,0,110.3,13.39,8.19,280.1
"2010-04-18 00:53:30",35127,1.159,318.9,9.46,1.028,7.177,103.1849,7.43,8.5,78.17,0,110.3,13.36,8.21,280.9
"2010-04-18 00:54:00",35128,2.473,330.2,13.86,1.324,9.65,103.2126,7.501,8.67,78.72,0,110.3,13.36,8.28,292.2
"2010-04-18 00:54:30",35129,2.234,342.2,6.567,1.325,9.97,103.2108,7.496,8.78,78.94,0,110.3,13.36,8.27,304.2
"2010-04-18 00:55:00",35130,1.596,347.4,6.141,1.274,8.03,103.2137,7.504,8.53,78.71,0,110.3,13.36,8.28,309.4
"2010-04-18 00:55:30",35131,0.497,324.9,16.53,0.251,6.542,103.2368,7.563,8.59,78.87,0,110.3,13.39,8.34,286.9
"2010-04-18 00:56:00",35132,0.205,313.9,9.91,0.103,5.66,103.247,7.589,8.54,78.86,0,110.3,13.39,8.37,275.9
"2010-04-18 00:56:30",35133,0.361,320.2,22.03,0.316,6.112,103.2476,7.59,8.67,79,0,110.3,13.36,8.37,282.2
"2010-04-18 00:57:00",35134,1.43,8.88,19.83,1.312,8.05,103.2562,7.612,8.64,78.54,0,110.3,13.36,8.39,330.9
"2010-04-18 00:57:30",35135,0.458,9.73,17.17,0.27,6.231,103.2608,7.624,8.59,77.72,0,110.3,13.39,8.40,331.7
"2010-04-18 00:58:00",35136,1.209,348.7,4.887,0.225,6.173,103.2481,7.592,8.6,77.02,0,110.3,13.39,8.37,310.7
"2010-04-18 00:58:30",35137,1.676,320,12.19,0.19,6.298,103.2402,7.571,8.57,76.6,0,110.3,13.39,8.35,282.0
"2010-04-18 00:59:00",35138,2.51,308.9,10.87,1.125,8.25,103.2397,7.57,8.69,76.67,0,110.3,13.35,8.35,270.9
"2010-04-18 00:59:30",35139,3.997,327,6.754,0.717,11.46,103.2168,7.512,8.81,76.71,0,110.3,13.35,8.29,289.0
"2010-04-18 01:00:00",35140,3.179,329.9,7.866,1.237,10.48,103.2143,7.505,8.68,76.71,0,110.3,13.35,8.28,291.9
"2010-04-18 01:00:30",35141,1.661,314.2,4.699,0.568,6.582,103.2104,7.495,8.58,76.82,0,110.3,13.35,8.27,276.2
"2010-04-18 01:01:00",35142,2.894,315.3,6.85,1.312,8.26,103.181,7.42,8.6,77.35,0,110.3,13.35,8.20,277.3
"2010-04-18 01:01:30",35143,1.502,295.2,5.147,0.156,6.351,103.181,7.42,8.52,77.37,0,110.3,13.38,8.20,257.2
"2010-04-18 01:02:00",35144,1.711,304.6,15.27,0.285,6.195,103.172,7.397,8.44,77.53,0,110.3,13.38,8.18,266.6
"2010-04-18 01:02:30",35145,1.69,288.6,6.672,0.21,6.751,103.1636,7.376,8.43,77.64,0,110.3,13.38,8.15,250.6
"2010-04-18 01:03:00",35146,2.315,304.4,11.18,1.044,7.713,103.1703,7.393,8.42,77.75,0,110.3,13.35,8.17,266.4
"2010-04-18 01:03:30",35147,3.91,304,5.358,1.01,11.97,103.1709,7.394,8.73,78.19,0,110.3,13.35,8.17,266.0
"2010-04-18 01:04:00",35148,3.414,293.5,9.39,1.267,10.87,103.1717,7.396,8.69,78.29,0,110.3,13.35,8.17,255.5
"2010-04-18 01:04:30",35149,2.797,302.3,6.288,1.111,8.25,103.1607,7.368,8.48,78.11,0,110.3,13.35,8.15,264.3
"2010-04-18 01:05:00",35150,2.786,291.4,12.93,1.385,8.65,103.1472,7.334,8.52,78,0,110.3,13.35,8.11,253.4
"2010-04-18 01:05:30",35151,1.412,289.4,9.48,0.243,6.277,103.1365,7.306,8.37,77.64,0,110.3,13.39,8.08,251.4
"2010-04-18 01:06:00",35152,1.737,305.5,7.576,0.195,6.069,103.1134,7.247,8.35,77.7,0,110.3,13.39,8.02,267.5
"2010-04-18 01:06:30",35153,1.55,292.3,17.53,0.192,6.734,103.1012,7.216,8.32,77.94,0,110.3,13.39,7.99,254.3
"2010-04-18 01:07:00",35154,1.686,309.3,7.362,0.553,7.506,103.0795,7.161,8.35,78.05,0,110.3,13.36,7.94,271.3
"2010-04-18 01:07:30",35155,3.689,323.1,9.84,0.987,11.95,103.0674,7.13,8.5,78.18,0,110.3,13.36,7.91,285.1
"2010-04-18 01:08:00",35156,3.655,312.4,7.123,1.056,11.29,103.0533,7.094,8.49,78.31,0,110.3,13.36,7.87,274.4
"2010-04-18 01:08:30",35157,2.896,316.2,6.258,1.218,8.73,103.0488,7.082,8.4,78.32,0,110.3,13.36,7.86,278.2
"2010-04-18 01:09:00",35158,2.987,314.3,12.05,1.155,8.81,103.0492,7.083,8.31,78.17,0,110.3,13.36,7.86,276.3
"2010-04-18 01:09:30",35159,1.738,291.7,3.537,0.229,6.318,103.0529,7.093,8.18,77.88,0,110.3,13.4,7.87,253.7
"2010-04-18 01:10:00",35160,1.732,292.3,2.21,0.137,6.397,103.0559,7.1,8.17,77.7,0,110.2,13.4,7.88,254.3
"2010-04-18 01:10:30",35161,1.638,292,2.178,0.067,6.844,103.052,7.091,8.18,77.65,0,110.2,13.4,7.87,254.0
"2010-04-18 01:11:00",35162,2.724,290.3,7.609,1.338,9.68,103.0399,7.06,8.3,77.77,0,110.2,13.36,7.84,252.3
"2010-04-18 01:11:30",35163,3.958,298.8,6.684,0.275,12.27,103.0429,7.067,8.42,77.92,0,110.2,13.37,7.84,260.8
"2010-04-18 01:12:00",35164,2.652,289.4,5.531,1.22,8.94,103.0455,7.074,8.21,77.69,0,110.2,13.37,7.85,251.4
"2010-04-18 01:12:30",35165,1.856,286.5,6.044,1.162,7.976,103.0411,7.063,8.29,77.8,0,110.2,13.37,7.84,248.5
"2010-04-18 01:13:00",35166,2.472,278.3,13.82,1.273,8.4,103.0196,7.008,8.19,77.73,0,110.2,13.37,7.78,240.3
"2010-04-18 01:13:30",35167,1.293,267.3,4.638,0.117,6.351,103.0129,6.99,8.09,77.65,0,110.2,13.4,7.77,229.3
"2010-04-18 01:14:00",35168,1.534,276.6,2.577,0.081,6.347,103.0112,6.986,8.06,77.69,0,110.2,13.41,7.76,238.6
"2010-04-18 01:14:30",35169,1.525,275.2,2.953,0.12,6.542,102.9925,6.939,8.05,77.69,0,110.2,13.41,7.71,237.2
"2010-04-18 01:15:00",35170,2.403,257.6,7.057,1.318,9.22,102.979,6.904,8.14,77.82,0,110.2,13.38,7.68,219.6
"2010-04-18 01:15:30",35171,3.331,274.6,6.376,1.137,10.74,102.979,6.904,8.29,78.01,0,110.2,13.38,7.68,236.6
"2010-04-18 01:16:00",35172,2.773,280.3,6.354,1.268,10.33,102.9714,6.884,8.22,78.03,0,110.2,13.38,7.66,242.3
"2010-04-18 01:16:30",35173,2.054,267.8,7.52,1.228,8.54,102.9494,6.828,8.12,78.04,0,110.2,13.38,7.60,229.8
"2010-04-18 01:17:00",35174,2.626,274.3,8.83,1.319,9,102.9452,6.817,8.11,78.11,0,110.2,13.37,7.59,236.3
"2010-04-18 01:17:30",35175,1.188,275.1,4.992,0.085,6.664,102.9443,6.815,7.943,78.04,0,110.2,13.41,7.59,237.1
"2010-04-18 01:18:00",35176,1.587,279.2,3.302,0.114,6.45,102.9217,6.758,7.925,78.11,0,110.2,13.41,7.53,241.2
"2010-04-18 01:18:30",35177,1.849,283,1.761,0.13,6.561,102.9136,6.737,7.914,78.18,0,110.2,13.41,7.51,245.0
"2010-04-18 01:19:00",35178,3.305,292.5,7.398,1.349,9.34,102.9203,6.754,7.985,78.36,0,110.2,13.38,7.53,254.5
"2010-04-18 01:19:30",35179,2.878,288.1,6.152,1.175,8.79,102.9196,6.752,7.995,78.5,0,110.2,13.38,7.53,250.1
"2010-04-18 01:20:00",35180,4.151,295.8,6.928,1.247,10.94,102.9006,6.704,8.1,78.61,0,110.1,13.38,7.48,257.8
"2010-04-18 01:20:30",35181,4.056,295.3,5.816,1.122,10.8,102.9036,6.711,8.11,78.73,0,110.1,13.38,7.49,257.3
"2010-04-18 01:21:00",35182,3.657,304.5,6.294,1.371,9.4,102.9085,6.724,7.916,78.63,0,110.1,13.39,7.50,266.5
"2010-04-18 01:21:30",35183,1.766,302.9,7.626,0.342,6.41,102.8956,6.691,7.802,78.54,0,110.1,13.42,7.47,264.9
"2010-04-18 01:22:00",35184,2.004,296.5,6.313,0.204,6.412,102.8787,6.648,7.777,78.53,0,110.1,13.42,7.42,258.5
"2010-04-18 01:22:30",35185,2.616,298.8,11.09,1.081,8.91,102.8784,6.647,7.879,78.59,0,110.1,13.39,7.42,260.8
"2010-04-18 01:23:00",35186,2.461,299.8,12.41,0.819,7.593,102.8728,6.633,7.8,78.48,0,110.1,13.39,7.41,261.8
"2010-04-18 01:23:30",35187,3.657,296.2,9.75,1.272,10.41,102.8482,6.57,7.951,78.84,0,110.1,13.39,7.34,258.2
"2010-04-18 01:24:00",35188,4.23,287.5,7.654,1.017,11.59,102.8446,6.56,7.971,78.93,0,110.1,13.39,7.34,249.5
"2010-04-18 01:24:30",35189,4.062,288.8,7.926,1.099,10.64,102.8446,6.56,7.952,78.96,0,110.1,13.39,7.34,250.8
"2010-04-18 01:25:00",35190,3.32,283.9,4.749,1.012,7.868,102.8403,6.55,7.646,78.8,0,110.1,13.39,7.32,245.9
"2010-04-18 01:25:30",35191,2.614,289.3,3.007,0.128,6.5,102.8169,6.49,7.625,79,0,110.1,13.43,7.26,251.3
"2010-04-18 01:26:00",35192,3.804,298.9,6.353,1.151,8.69,102.8107,6.474,7.781,79.32,0,110.1,13.4,7.25,260.9
"2010-04-18 01:26:30",35193,3.444,293,5.224,0.823,7.332,102.8107,6.474,7.699,79.39,0,110.1,13.4,7.25,255.0
"2010-04-18 01:27:00",35194,5.31,301,5.113,1.043,11.49,102.8107,6.474,7.779,79.62,0,110.1,13.4,7.25,263.0
"2010-04-18 01:27:30",35195,5.384,300.7,4.804,0.911,11.55,102.8116,6.476,7.893,79.83,0,110.1,13.4,7.25,262.7
"2010-04-18 01:28:00",35196,5.273,301.6,3.996,0.986,11.55,102.8041,6.457,7.892,79.93,0,110.1,13.4,7.23,263.6
"2010-04-18 01:28:30",35197,3.469,291.3,4.265,0.688,7.282,102.8043,6.458,7.623,79.78,0,110.1,13.4,7.23,253.3
"2010-04-18 01:29:00",35198,3.286,288.8,1.374,0.109,6.559,102.7974,6.44,7.556,79.78,0,110.1,13.44,7.21,250.8
"2010-04-18 01:29:30",35199,4.691,295.2,7.887,1.262,9.21,102.8061,6.462,7.698,80,0,110.1,13.4,7.24,257.2
"2010-04-18 01:30:00",35200,3.859,292.1,4.636,0.965,8.41,102.8093,6.47,7.7,80,0,110.1,13.4,7.24,254.1
"2010-04-18 01:30:30",35201,4.207,302.4,6.28,1.334,8.49,102.8088,6.469,7.533,79.85,0,110.1,13.4,7.24,264.4
"2010-04-18 01:31:00",35202,5.773,307.5,6.417,0.897,11.88,102.8015,6.45,7.856,80.1,0,110.1,13.4,7.22,269.5
"2010-04-18 01:31:30",35203,5.421,296.9,6.28,1.176,10.86,102.7826,6.402,7.76,79.96,0,110.1,13.4,7.18,258.9
"2010-04-18 01:32:00",35204,4.201,290.3,4.588,0.967,7.95,102.7778,6.39,7.56,79.71,0,110.1,13.41,7.16,252.3
"2010-04-18 01:32:30",35205,4.072,290.1,3.453,0.79,6.972,102.7778,6.39,7.491,79.6,0,110.1,13.4,7.16,252.1
"2010-04-18 01:33:00",35206,5.155,299.1,7.552,1.322,9.3,102.7778,6.39,7.629,79.72,0,110.1,13.4,7.16,261.1
"2010-04-18 01:33:30",35207,4.204,295.1,5.037,0.957,8.28,102.7778,6.39,7.558,79.62,0,110,13.4,7.16,257.1
"2010-04-18 01:34:00",35208,5.671,301.9,5.87,1.102,10.91,102.7778,6.39,7.616,79.63,0,110,13.4,7.16,263.9
"2010-04-18 01:34:30",35209,5.607,301.7,6.252,1.154,11.17,102.7778,6.39,7.747,79.74,0,110,13.41,7.16,263.7
"2010-04-18 01:35:00",35210,5.487,301,6.067,1.197,10.52,102.7721,6.375,7.704,79.57,0,110,13.4,7.15,263.0
"2010-04-18 01:35:30",35211,4.495,294.5,5.703,1.06,8.13,102.7591,6.342,7.476,79.14,0,110,13.4,7.12,256.5
"2010-04-18 01:36:00",35212,5.197,296.9,6.847,1.292,9.41,102.745,6.306,7.537,78.93,0,110,13.4,7.08,258.9
"2010-04-18 01:36:30",35213,4.838,294.3,6.07,1.233,9.34,102.7439,6.303,7.586,78.67,0,110,13.41,7.08,256.3
"2010-04-18 01:37:00",35214,4.093,288.4,3.998,0.78,7.756,102.7439,6.303,7.443,78.25,0,110,13.41,7.08,250.4
"2010-04-18 01:37:30",35215,5.724,295.4,6.297,1.054,11.27,102.7439,6.303,7.663,78.34,0,110,13.41,7.08,257.4
"2010-04-18 01:38:00",35216,5.243,296.4,6.884,1.125,11.28,102.7448,6.305,7.665,78.21,0,110,13.41,7.08,258.4
"2010-04-18 01:38:30",35217,4.282,294.4,5.426,1.246,9.09,102.7454,6.307,7.424,77.85,0,110,13.41,7.08,256.4
"2010-04-18 01:39:00",35218,3.495,290.9,3.208,0.686,7.322,102.7488,6.316,7.387,77.58,0,110,13.41,7.09,252.9
"2010-04-18 01:39:30",35219,4.624,295.5,5.992,1.307,9.65,102.7529,6.326,7.576,77.5,0,110,13.41,7.10,257.5
"2010-04-18 01:40:00",35220,3.348,287.9,1.721,0.082,7.402,102.7535,6.328,7.393,77.07,0,110,13.45,7.10,249.9
"2010-04-18 01:40:30",35221,3.779,293.7,6.93,1.114,8.87,102.7581,6.34,7.506,76.98,0,110,13.42,7.11,255.7
"2010-04-18 01:41:00",35222,5.475,302.4,6.579,1.151,11.42,102.7651,6.357,7.649,76.95,0,110,13.42,7.13,264.4
"2010-04-18 01:41:30",35223,5.478,306.1,5.424,1.25,11.09,102.7697,6.369,7.652,76.81,0,110,13.42,7.14,268.1
"2010-04-18 01:42:00",35224,5.052,304.1,8.26,1.234,9.4,102.772,6.375,7.457,76.43,0,110,13.42,7.15,266.1
"2010-04-18 01:42:30",35225,4.267,296.6,8.02,1.093,7.874,102.7749,6.383,7.478,76.26,0,110,13.42,7.16,258.6
"2010-04-18 01:43:00",35226,4.819,301.5,6.549,1.231,9.79,102.7778,6.39,7.506,75.99,0,110,13.42,7.16,263.5
"2010-04-18 01:43:30",35227,3.896,297.8,1.168,0.137,7.427,102.783,6.403,7.412,75.65,0,110,13.45,7.18,259.8
"2010-04-18 01:44:00",35228,5.335,306.1,7.426,1.243,10.15,102.7968,6.438,7.588,75.63,0,110,13.42,7.21,268.1
"2010-04-18 01:44:30",35229,5.546,307.4,6.717,1.247,11.25,102.8118,6.477,7.693,75.58,0,110,13.42,7.25,269.4
"2010-04-18 01:45:00",35230,5.641,309,6.889,1.138,10.96,102.8126,6.479,7.575,75.38,0,110,13.42,7.25,271.0
"2010-04-18 01:45:30",35231,4.72,295.8,3.98,1.148,8.82,102.8126,6.479,7.566,75.29,0,110,13.42,7.25,257.8
"2010-04-18 01:46:00",35232,4.365,294.6,4.853,0.846,7.975,102.8126,6.479,7.601,75.12,0,110,13.42,7.25,256.6
"2010-04-18 01:46:30",35233,5.356,306.8,6.711,1.13,9.52,102.8126,6.479,7.547,74.9,0,110,13.42,7.25,268.8
"2010-04-18 01:47:00",35234,4.354,297.5,7.545,0.763,7.894,102.8168,6.49,7.564,74.9,0,110,13.42,7.26,259.5
"2010-04-18 01:47:30",35235,6.511,306.8,7.117,1.196,11.47,102.8403,6.549,7.78,74.96,0,110,13.42,7.32,268.8
"2010-04-18 01:48:00",35236,6.29,300.8,7.013,1.207,11.7,102.8465,6.565,7.74,74.77,0,110,13.42,7.34,262.8
"2010-04-18 01:48:30",35237,5.352,298.2,4.897,1.111,10.27,102.8465,6.565,7.758,74.64,0,110,13.42,7.34,260.2
"2010-04-18 01:49:00",35238,5.646,294,7.115,1.294,10.08,102.8465,6.565,7.732,74.53,0,110,13.42,7.34,256.0
"2010-04-18 01:49:30",35239,5.581,293.7,8.03,1.391,9.41,102.8533,6.583,7.753,74.41,0,110,13.42,7.36,255.7
"2010-04-18 01:50:00",35240,4.928,281.8,4.634,0.993,7.814,102.868,6.62,7.592,74.27,0,110,13.42,7.40,243.8
"2010-04-18 01:50:30",35241,6,286.6,6.377,1.235,10.67,102.8787,6.648,7.79,74.77,0,110,13.41,7.42,248.6
"2010-04-18 01:51:00",35242,5.892,285.1,7.248,1.215,11.4,102.8804,6.652,7.9,75.02,0,110,13.42,7.43,247.1